Sand Point, AK

5:49 PM AKST on January 18, 2017 (GMT -0900)
Sand Point

Weather History for PASD - September, 2012

Change the Weather History Date:

Wednesday, September 12, 2012

  Actual Average Record
Temperature  
Mean Temperature 50 °F -  
Max Temperature 55 °F 51 °F 60 °F (1997)
Min Temperature 46 °F 44 °F 38 °F (1983)
Degree Days  
Heating Degree Days 14    
Moisture  
Dew Point 44 °F    
Average Humidity 80    
Maximum Humidity 93    
Minimum Humidity 63    
Precipitation  
Precipitation 0.00 in - - ()
Sea Level Pressure  
Sea Level Pressure 29.87 in    
Wind  
Wind Speed 10 mph (WNW)    
Max Wind Speed 20 mph    
Max Gust Speed 23 mph    
Visibility 10 miles    
Events      
Averages and records for this station are not official NWS values.
T = Trace of Precipitation, MM = Missing Value Source: NWS Daily Summary

Daily Weather History Graph

Daily Weather History Graph

Search for Another Location

Airport or City:

Trip Planner

Search our weather history database for the weather conditions in past years. The results will help you decide how hot, cold, wet, or windy it might be!

Date:

Astronomy

Sep. 12, 2012 Rise Set
Actual Time 8:09 AM AKDT 9:04 PM AKDT
Civil Twilight 7:32 AM AKDT 9:41 PM AKDT
Nautical Twilight 6:47 AM AKDT 10:26 PM AKDT
Astronomical Twilight 5:58 AM AKDT 11:15 PM AKDT
Moon 4:10 AM AKDT (9/12) 7:21 PM AKDT (9/12)
Length of Visible Light 14h 09m
Length of Day
12h 54m
Waning Crescent, 12% of the Moon is Illuminated
Sep 12
Waning Crescent
Sep 15
New
Sep 22
First Quarter
Sep 29
Full
Oct 7
Last Quarter

Hourly Weather History & Observations

Time (AKDT) Temp. Windchill Dew Point Humidity Pressure Visibility Wind Dir Wind Speed Gust Speed Precip Events Conditions
12:16 AM 48.2 °F - 44.6 °F 87% 29.71 in 10.0 mi West 6.9 mph - N/A   Mostly Cloudy
12:36 AM 48.2 °F - 44.6 °F 87% 29.71 in 10.0 mi NW 8.1 mph - N/A   Mostly Cloudy
12:56 AM 48.2 °F - 44.6 °F 87% 29.72 in 10.0 mi WNW 12.7 mph - N/A   Overcast
1:16 AM 48.2 °F - 44.6 °F 87% 29.72 in 10.0 mi West 6.9 mph - N/A   Overcast
1:36 AM 48.2 °F - 44.6 °F 87% 29.72 in 10.0 mi WNW 9.2 mph - N/A   Scattered Clouds
1:56 AM 48.2 °F - 44.6 °F 87% 29.72 in 10.0 mi West 8.1 mph - N/A   Mostly Cloudy
2:16 AM 48.2 °F - 44.6 °F 87% 29.73 in 10.0 mi WNW 8.1 mph - N/A   Overcast
2:36 AM 48.2 °F - 44.6 °F 87% 29.73 in 10.0 mi WNW 8.1 mph - N/A   Overcast
2:56 AM 48.2 °F - 44.6 °F 87% 29.74 in 10.0 mi NW 10.4 mph - N/A   Overcast
3:16 AM 48.2 °F - 44.6 °F 87% 29.73 in 10.0 mi WNW 6.9 mph - N/A   Overcast
3:36 AM 48.2 °F - 44.6 °F 87% 29.74 in 10.0 mi West 4.6 mph - N/A   Overcast
3:56 AM 48.2 °F - 44.6 °F 87% 29.74 in 10.0 mi West 5.8 mph - N/A   Overcast
4:16 AM 48.2 °F - 44.6 °F 87% 29.74 in 10.0 mi WNW 5.8 mph - N/A   Overcast
4:36 AM 48.2 °F - 44.6 °F 87% 29.74 in 10.0 mi West 4.6 mph - N/A   Overcast
4:56 AM 48.2 °F - 44.6 °F 87% 29.75 in 10.0 mi SSW 3.5 mph - N/A   Overcast
5:16 AM 48.2 °F - 44.6 °F 87% 29.75 in 10.0 mi Calm Calm - N/A   Overcast
5:36 AM 48.2 °F - 44.6 °F 87% 29.75 in 10.0 mi Calm Calm - N/A   Overcast
5:56 AM 48.2 °F - 44.6 °F 87% 29.76 in 10.0 mi WSW 3.5 mph - N/A   Overcast
6:16 AM 48.2 °F - 44.6 °F 87% 29.76 in 10.0 mi West 6.9 mph - N/A   Overcast
6:36 AM 48.2 °F - 46.4 °F 93% 29.77 in 10.0 mi WNW 10.4 mph - N/A   Mostly Cloudy
6:56 AM 48.2 °F - 46.4 °F 93% 29.77 in 10.0 mi WNW 9.2 mph - N/A   Mostly Cloudy
7:16 AM 48.2 °F - 46.4 °F 93% 29.78 in 10.0 mi WNW 9.2 mph - N/A   Mostly Cloudy
7:36 AM 48.2 °F - 46.4 °F 93% 29.79 in 10.0 mi WNW 8.1 mph - N/A   Mostly Cloudy
7:56 AM 48.2 °F - 46.4 °F 93% 29.79 in 10.0 mi WNW 10.4 mph - N/A   Mostly Cloudy
8:16 AM 48.2 °F - 46.4 °F 93% 29.80 in 10.0 mi WNW 10.4 mph - N/A   Mostly Cloudy
8:36 AM 48.2 °F - 46.4 °F 93% 29.80 in 10.0 mi NW 10.4 mph - N/A   Mostly Cloudy
8:56 AM 48.2 °F - 46.4 °F 93% 29.81 in 10.0 mi NW 9.2 mph - N/A   Mostly Cloudy
9:16 AM 48.2 °F - 46.4 °F 93% 29.82 in 10.0 mi WNW 9.2 mph - N/A   Mostly Cloudy
9:36 AM 48.2 °F - 46.4 °F 93% 29.83 in 10.0 mi WNW 10.4 mph - N/A   Mostly Cloudy
9:56 AM 48.2 °F - 46.4 °F 93% 29.84 in 10.0 mi WNW 9.2 mph - N/A   Scattered Clouds
10:16 AM 50.0 °F - 46.4 °F 87% 29.84 in 10.0 mi NW 12.7 mph - N/A   Scattered Clouds
10:36 AM 51.8 °F - 44.6 °F 76% 29.85 in 10.0 mi NW 13.8 mph - N/A   Scattered Clouds
10:56 AM 51.8 °F - 44.6 °F 76% 29.86 in 10.0 mi WNW 15.0 mph - N/A   Mostly Cloudy
11:16 AM 51.8 °F - 44.6 °F 76% 29.86 in 10.0 mi NW 10.4 mph - N/A   Mostly Cloudy
11:36 AM 51.8 °F - 44.6 °F 76% 29.87 in 10.0 mi NNW 10.4 mph - N/A   Mostly Cloudy
11:56 AM 51.8 °F - 44.6 °F 76% 29.88 in 10.0 mi NNW 8.1 mph 19.6 mph N/A   Mostly Cloudy
12:16 PM 53.6 °F - 42.8 °F 67% 29.88 in 10.0 mi NW 12.7 mph - N/A   Mostly Cloudy
12:36 PM 53.6 °F - 44.6 °F 72% 29.89 in 10.0 mi WNW 10.4 mph - N/A   Mostly Cloudy
12:56 PM 53.6 °F - 44.6 °F 72% 29.89 in 10.0 mi WNW 13.8 mph - N/A   Mostly Cloudy
1:16 PM 53.6 °F - 44.6 °F 72% 29.89 in 10.0 mi WNW 15.0 mph 20.7 mph N/A   Mostly Cloudy
1:56 PM 53.6 °F - 44.6 °F 72% 29.91 in 10.0 mi NW 11.5 mph - N/A   Mostly Cloudy
2:16 PM 53.6 °F - 44.6 °F 72% 29.91 in 10.0 mi WNW 15.0 mph - N/A   Mostly Cloudy
2:36 PM 53.6 °F - 44.6 °F 72% 29.91 in 10.0 mi WNW 15.0 mph - N/A   Mostly Cloudy
2:56 PM 53.6 °F - 44.6 °F 72% 29.92 in 10.0 mi NW 17.3 mph 20.7 mph N/A   Mostly Cloudy
3:16 PM 53.6 °F - 44.6 °F 72% 29.92 in 10.0 mi WNW 16.1 mph - N/A   Mostly Cloudy
3:36 PM 55.4 °F - 44.6 °F 67% 29.93 in 10.0 mi NW 19.6 mph - N/A   Mostly Cloudy
3:56 PM 55.4 °F - 42.8 °F 63% 29.93 in 10.0 mi WNW 17.3 mph - N/A   Mostly Cloudy
4:16 PM 55.4 °F - 44.6 °F 67% 29.93 in 10.0 mi WNW 16.1 mph 23.0 mph N/A   Mostly Cloudy
4:36 PM 55.4 °F - 44.6 °F 67% 29.94 in 10.0 mi WNW 15.0 mph - N/A   Mostly Cloudy
4:56 PM 53.6 °F - 44.6 °F 72% 29.94 in 10.0 mi WNW 15.0 mph 19.6 mph N/A   Mostly Cloudy
5:16 PM 53.6 °F - 44.6 °F 72% 29.94 in 10.0 mi WNW 13.8 mph - N/A   Mostly Cloudy
5:36 PM 53.6 °F - 44.6 °F 72% 29.95 in 10.0 mi WNW 15.0 mph - N/A   Mostly Cloudy
5:56 PM 53.6 °F - 42.8 °F 67% 29.95 in 10.0 mi WNW 13.8 mph - N/A   Scattered Clouds
6:16 PM 53.6 °F - 42.8 °F 67% 29.96 in 10.0 mi NW 12.7 mph - N/A   Scattered Clouds
6:36 PM 53.6 °F - 42.8 °F 67% 29.96 in 10.0 mi WNW 13.8 mph 18.4 mph N/A   Scattered Clouds
6:56 PM 51.8 °F - 41.0 °F 67% 29.97 in 10.0 mi WNW 11.5 mph 20.7 mph N/A   Scattered Clouds
7:16 PM 51.8 °F - 41.0 °F 67% 29.97 in 10.0 mi WNW 15.0 mph 20.7 mph N/A   Scattered Clouds
7:36 PM 51.8 °F - 41.0 °F 67% 29.97 in 10.0 mi WNW 16.1 mph 20.7 mph N/A   Scattered Clouds
7:56 PM 51.8 °F - 41.0 °F 67% 29.98 in 10.0 mi WNW 15.0 mph - N/A   Scattered Clouds
8:16 PM 50.0 °F - 41.0 °F 71% 29.99 in 10.0 mi WNW 12.7 mph - N/A   Clear
8:36 PM 50.0 °F - 41.0 °F 71% 30.00 in 10.0 mi WNW 12.7 mph 18.4 mph N/A   Mostly Cloudy
8:56 PM 48.2 °F - 41.0 °F 76% 30.01 in 10.0 mi WNW 12.7 mph - N/A   Mostly Cloudy
9:16 PM 48.2 °F - 41.0 °F 76% 30.02 in 10.0 mi NW 10.4 mph - N/A   Mostly Cloudy
9:36 PM 48.2 °F - 39.2 °F 71% 30.03 in 10.0 mi WNW 12.7 mph - N/A   Partly Cloudy
9:56 PM 46.4 °F 40.4 °F 41.0 °F 81% 30.03 in 10.0 mi NW 13.8 mph 18.4 mph N/A   Partly Cloudy
10:16 PM 46.4 °F 41.1 °F 39.2 °F 76% 30.04 in 10.0 mi NW 11.5 mph - N/A   Partly Cloudy
10:36 PM 46.4 °F 41.1 °F 41.0 °F 81% 30.03 in 10.0 mi NW 11.5 mph - N/A   Clear
10:56 PM 46.4 °F 41.9 °F 41.0 °F 81% 30.04 in 10.0 mi NW 9.2 mph - N/A   Mostly Cloudy
11:16 PM 46.4 °F 41.1 °F 42.8 °F 87% 30.05 in 10.0 mi WNW 11.5 mph - N/A   Mostly Cloudy
11:36 PM 46.4 °F 41.9 °F 42.8 °F 87% 30.05 in 10.0 mi WNW 9.2 mph - N/A   Scattered Clouds
11:56 PM 46.4 °F 40.7 °F 42.8 °F 87% 30.05 in 10.0 mi WNW 12.7 mph - N/A   Partly Cloudy